Regional Weather Roundup
Issued by NWS Sioux Falls, SD

Home | Current Version | Previous Version | Graphics & Text | Print | Product List | Glossary On
Versions: 1 2 3 4 5 6 7 8 9 10 11 12 13 14 15 16 17 18 19 20 21 22 23 24 25 26 27 28 29 30 31 32 33 34 35 36 37 38 39 40 41 42 43 44 45 46 47 48 49 50
000
ASUS43 KFSD 211410
RWRFSD

WEATHER ROUNDUP FOR SE SOUTH DAKOTA/SW MINNESOTA/NW IOWA
NATIONAL WEATHER SERVICE SIOUX FALLS SD
900 AM CDT THU AUG 21 2014

NOTE: "FAIR" INDICATES FEW OR NO CLOUDS BELOW 12,000 FEET WITH NO
SIGNIFICANT WEATHER AND OR OBSTRUCTIONS TO VISIBILITY.


SDZ038>040-050-052>070-211500-
SOUTHEAST SOUTH DAKOTA

CITY           SKY/WX    TMP DP  RH WIND       PRES   REMARKS
CHAMBERLAIN    MOSUNNY   69  66  91 NW10      29.82S
HURON          SUNNY     72  66  81 N3        29.77S
MADISON        FAIR      73  73 100 S5        29.78R
MITCHELL       CLOUDY    72  69  90 N9        29.78R
SIOUX FALLS    CLOUDY    77  70  79 SW7       29.77S
WINNER         FAIR      70  64  81 NW13      29.86R
YANKTON        CLOUDY    75  64  69 W9        29.76S
$$

MNZ071-072-080-081-089-090-097-098-211500-
SOUTHWEST MINNESOTA

CITY           SKY/WX    TMP DP  RH WIND       PRES   REMARKS
FAIRMONT       CLOUDY    72  66  83 MISG      29.81R
JACKSON        PTSUNNY   73  70  88 S8        29.81R
LUVERNE        LGT RAIN  73  70  88 S5        29.78S
MARSHALL       MOSUNNY   73  68  83 S7        29.75S
MONTEVIDEO     CLOUDY    73  72  94 S9        29.76S
PIPESTONE      CLOUDY    73  72  94 CALM      29.78S
REDWOOD FALLS  CLOUDY    74  71  91 E7        29.76R
TRACY          PTSUNNY   74  71  92 CALM      29.76S
WINDOM         PTSUNNY   73  70  88 S12       29.78S
WORTHINGTON    CLOUDY    75  16  10 SW6       29.80S
$$

IAZ001>003-012>014-020>022-031-032-NEZ013-014-SDZ071-211500-
NORTHWEST IOWA

CITY           SKY/WX    TMP DP  RH WIND       PRES   REMARKS
CHEROKEE       PTSUNNY   74  71  92 S5        29.80F
DENISON        CLOUDY    75  70  83 CALM      29.80S
ESTHERVILLE    PTSUNNY   73  71  93 S10       29.81R
LE MARS        PTSUNNY   77  72  83 VRB5      29.79R
ORANGE CITY    CLOUDY    77  72  83 S5        29.79F
SHELDON        LGT RAIN  72  70  94 CALM      29.80R
SIOUX CITY     PTSUNNY   76  67  73 SE6       29.78S
SPENCER        CLOUDY    74  69  85 S8        29.81R
STORM LAKE     CLOUDY    72  72 100 SW6       29.82S
$$

ABBREVIATIONS USED IN REMARKS
   TC - TEMPERATURE IN CELSIUS
  WCI - WIND CHILL INDEX
   HX - HEAT INDEX
  VSB - VISIBILITY



USA.gov is the U.S. government's official web portal to all federal, state and local government web resources and services.